Weather History for KOEB - November, 2013

Change the Weather History Date:

Friday, November 8, 2013

  Actual Average (KJYM) Record (KJYM)
Temperature  
Mean Temperature 38 °F -  
Max Temperature 45 °F 48 °F 64 °F (1975)
Min Temperature 32 °F 31 °F 7 °F (1991)
Degree Days  
Heating Degree Days 26    
Moisture  
Dew Point 31 °F    
Average Humidity 78    
Maximum Humidity 99    
Minimum Humidity 52    
Precipitation  
Precipitation 0.00 in - - ()
Sea Level Pressure  
Sea Level Pressure 30.21 in    
Wind  
Wind Speed 4 mph (SW)    
Max Wind Speed 10 mph    
Max Gust Speed 17 mph    
Visibility 8 miles    
Events Snow    
Averages and records for this station are not official NWS values.
T = Trace of Precipitation, MM = Missing Value Source: NWS Daily Summary

Daily Weather History Graph

Daily Weather History Graph

Search for Another Location

Airport or City:

Trip Planner

Search our weather history database for the weather conditions in past years. The results will help you decide how hot, cold, wet, or windy it might be!

Date:

Astronomy

Nov. 08, 2013 Rise Set
Actual Time 7:21 AM EST 5:25 PM EST
Civil Twilight 6:52 AM EST 5:55 PM EST
Nautical Twilight 6:18 AM EST 6:28 PM EST
Astronomical Twilight 5:46 AM EST 7:01 PM EST
Moon 12:16 PM EST (11/8) 10:46 PM EST (11/8)
Length of Visible Light 11h 03m
Length of Day
10h 04m
Waxing Crescent, 33% of the Moon is Illuminated
Nov 8
Waxing Crescent
Nov 10
First Quarter
Nov 17
Full
Nov 25
Last Quarter
Dec 2
New

Hourly Weather History & Observations

Time (EST) Temp. Windchill Dew Point Humidity Pressure Visibility Wind Dir Wind Speed Gust Speed Precip Events Conditions
12:15 AM 33.8 °F 28.6 °F 33.1 °F 97% 30.15 in 7.0 mi NW 5.8 mph - N/A   Overcast
12:34 AM 33.8 °F 30.8 °F 33.1 °F 97% 30.16 in 5.0 mi NW 3.5 mph - N/A Snow Light Snow
12:55 AM 33.6 °F - 33.1 °F 98% 30.16 in 5.0 mi Calm Calm - N/A   Overcast
1:15 AM 33.3 °F 30.2 °F 32.9 °F 99% 30.16 in 2.0 mi NNW 3.5 mph - N/A Snow Light Snow
1:34 AM 33.8 °F - 33.3 °F 98% 30.17 in 3.0 mi Calm Calm - N/A Snow Light Snow
1:55 AM 33.4 °F - 32.9 °F 98% 30.16 in 2.5 mi Calm Calm - N/A Snow Light Snow
2:15 AM 33.4 °F - 33.1 °F 99% 30.16 in 4.0 mi Calm Calm - N/A   Overcast
2:34 AM 33.1 °F - 32.9 °F 99% 30.17 in 4.0 mi Calm Calm - N/A   Overcast
2:55 AM 33.3 °F - 32.9 °F 99% 30.18 in 4.0 mi Calm Calm - N/A   Overcast
3:15 AM 33.3 °F 28.9 °F 32.9 °F 99% 30.18 in 4.0 mi SW 4.6 mph - N/A   Overcast
3:34 AM 33.6 °F 29.4 °F 33.1 °F 98% 30.18 in 5.0 mi WSW 4.6 mph - N/A   Overcast
3:55 AM 33.6 °F 29.4 °F 33.3 °F 99% 30.18 in 5.0 mi SW 4.6 mph - N/A   Overcast
4:15 AM 33.8 °F - 33.4 °F 99% 30.18 in 7.0 mi Calm Calm - N/A   Overcast
4:34 AM 33.8 °F - 33.3 °F 98% 30.19 in 5.0 mi Calm Calm - N/A   Overcast
4:55 AM 33.1 °F - 32.7 °F 99% 30.19 in 5.0 mi Calm Calm - N/A   Mostly Cloudy
5:15 AM 32.5 °F - 32.2 °F 99% 30.20 in 5.0 mi Calm Calm - N/A   Mostly Cloudy
5:34 AM 32.9 °F 29.8 °F 32.7 °F 99% 30.20 in 5.0 mi SW 3.5 mph - N/A   Mostly Cloudy
5:55 AM 33.3 °F - 32.9 °F 99% 30.21 in 4.0 mi Calm Calm - N/A   Overcast
6:15 AM 33.6 °F 28.4 °F 33.1 °F 98% 30.21 in 2.5 mi West 5.8 mph - N/A   Overcast
6:35 AM 33.6 °F 28.4 °F 33.1 °F 98% 30.22 in 2.0 mi West 5.8 mph - N/A   Overcast
6:55 AM 32.9 °F 29.8 °F 32.7 °F 99% 30.22 in 1.5 mi West 3.5 mph - N/A   Overcast
7:14 AM 32.4 °F 29.1 °F 32.2 °F 99% 30.24 in 2.5 mi WSW 3.5 mph - N/A   Mostly Cloudy
7:35 AM 32.7 °F 29.6 °F 32.4 °F 99% 30.25 in 1.8 mi WSW 3.5 mph - N/A   Overcast
7:55 AM 32.9 °F - 32.7 °F 99% 30.26 in 2.0 mi Calm Calm - N/A   Overcast
8:14 AM 32.9 °F - 32.5 °F 99% 30.26 in 2.0 mi Calm Calm - N/A   Overcast
8:35 AM 33.3 °F 30.2 °F 33.1 °F 99% 30.27 in 3.0 mi WSW 3.5 mph - N/A   Mostly Cloudy
8:54 AM 34.3 °F 28.4 °F 33.3 °F 96% 30.28 in 4.0 mi WSW 6.9 mph - N/A   Mostly Cloudy
9:15 AM 35.6 °F 31.7 °F 32.9 °F 90% 30.28 in 7.0 mi West 4.6 mph - N/A   Overcast
9:35 AM 36.5 °F 30.3 °F 33.3 °F 88% 30.28 in 10.0 mi West 8.1 mph - N/A   Mostly Cloudy
9:54 AM 38.7 °F 34.3 °F 33.6 °F 82% 30.28 in 10.0 mi WNW 5.8 mph - N/A   Scattered Clouds
10:15 AM 39.7 °F 35.6 °F 32.4 °F 75% 30.28 in 10.0 mi WNW 5.8 mph - N/A   Clear
10:35 AM 40.6 °F 36.0 °F 31.5 °F 70% 30.29 in 10.0 mi WNW 6.9 mph - N/A   Clear
10:54 AM 40.6 °F 35.4 °F 27.7 °F 60% 30.29 in 10.0 mi WNW 8.1 mph - N/A   Scattered Clouds
11:15 AM 40.3 °F 34.9 °F 27.1 °F 59% 30.29 in 10.0 mi WNW 8.1 mph - N/A   Scattered Clouds
11:35 AM 43.0 °F 37.7 °F 29.7 °F 59% 30.29 in 10.0 mi West 9.2 mph - N/A   Mostly Cloudy
11:54 AM 42.8 °F 38.0 °F 27.5 °F 55% 30.29 in 10.0 mi West 8.1 mph - N/A   Mostly Cloudy
12:15 PM 43.5 °F 38.9 °F 28.9 °F 56% 30.28 in 10.0 mi West 8.1 mph - N/A   Scattered Clouds
12:34 PM 43.7 °F 38.6 °F 28.6 °F 55% 30.27 in 10.0 mi West 9.2 mph - N/A   Scattered Clouds
12:55 PM 43.5 °F 39.4 °F 28.2 °F 55% 30.26 in 10.0 mi WSW 6.9 mph - N/A   Scattered Clouds
1:15 PM 42.8 °F 40.1 °F 27.0 °F 54% 30.25 in 10.0 mi West 4.6 mph - N/A   Clear
1:34 PM 43.0 °F 39.5 °F 28.0 °F 56% 30.24 in 10.0 mi WNW 5.8 mph - N/A   Clear
1:55 PM 44.6 °F 41.4 °F 27.9 °F 52% 30.24 in 10.0 mi WSW 5.8 mph - N/A   Clear
2:15 PM 44.6 °F 39.2 °F 28.2 °F 53% 30.24 in 10.0 mi SW 10.4 mph - N/A   Mostly Cloudy
2:34 PM 45.1 °F 40.8 °F 28.8 °F 53% 30.23 in 10.0 mi WSW 8.1 mph 17.3 mph N/A   Mostly Cloudy
2:55 PM 44.6 °F 40.2 °F 28.9 °F 54% 30.23 in 10.0 mi WSW 8.1 mph - N/A   Mostly Cloudy
3:14 PM 45.0 °F 40.1 °F 28.8 °F 53% 30.23 in 10.0 mi WSW 9.2 mph - N/A   Scattered Clouds
3:35 PM 45.1 °F 41.4 °F 29.5 °F 54% 30.21 in 10.0 mi SW 6.9 mph - N/A   Scattered Clouds
3:55 PM 43.9 °F 39.3 °F 28.6 °F 55% 30.21 in 10.0 mi SW 8.1 mph - N/A   Clear
4:14 PM 42.6 °F 39.0 °F 28.4 °F 57% 30.21 in 10.0 mi SW 5.8 mph - N/A   Clear
4:35 PM 41.9 °F 39.0 °F 28.6 °F 59% 30.21 in 10.0 mi SSW 4.6 mph - N/A   Clear
4:55 PM 41.2 °F 39.2 °F 29.8 °F 64% 30.21 in 10.0 mi SW 3.5 mph - N/A   Clear
5:15 PM 41.0 °F 37.1 °F 30.0 °F 65% 30.21 in 10.0 mi SW 5.8 mph - N/A   Clear
5:35 PM 40.5 °F 37.3 °F 29.7 °F 65% 30.21 in 10.0 mi SSW 4.6 mph - N/A   Clear
5:54 PM 39.7 °F 37.6 °F 30.0 °F 68% 30.21 in 10.0 mi SW 3.5 mph - N/A   Clear
6:15 PM 40.1 °F - 29.1 °F 65% 30.20 in 10.0 mi Calm Calm - N/A   Scattered Clouds
6:35 PM 39.7 °F 37.6 °F 29.1 °F 66% 30.20 in 10.0 mi South 3.5 mph - N/A   Clear
6:54 PM 38.1 °F 35.7 °F 29.3 °F 71% 30.20 in 10.0 mi South 3.5 mph - N/A   Clear
7:15 PM 37.4 °F 34.9 °F 29.3 °F 73% 30.21 in 10.0 mi South 3.5 mph - N/A   Clear
7:35 PM 34.2 °F 30.0 °F 30.7 °F 87% 30.19 in 10.0 mi SSE 4.6 mph - N/A   Clear
7:54 PM 35.6 °F 31.7 °F 30.9 °F 83% 30.18 in 10.0 mi SSE 4.6 mph - N/A   Clear
8:15 PM 38.3 °F 34.8 °F 30.4 °F 73% 30.18 in 10.0 mi SSE 4.6 mph - N/A   Scattered Clouds
8:35 PM 38.7 °F 34.3 °F 30.7 °F 73% 30.18 in 10.0 mi South 5.8 mph - N/A   Mostly Cloudy
8:54 PM 39.4 °F 35.2 °F 30.9 °F 72% 30.17 in 10.0 mi South 5.8 mph - N/A   Overcast
9:15 PM 39.6 °F 36.3 °F 31.8 °F 74% 30.17 in 10.0 mi SSE 4.6 mph - N/A   Mostly Cloudy
9:35 PM 39.4 °F 36.1 °F 31.8 °F 74% 30.16 in 10.0 mi SSE 4.6 mph - N/A   Clear
9:55 PM 39.6 °F 36.3 °F 32.0 °F 74% 30.16 in 10.0 mi SSE 4.6 mph - N/A   Clear
10:15 PM 39.9 °F 36.7 °F 32.0 °F 73% 30.16 in 10.0 mi SSE 4.6 mph - N/A   Clear
10:34 PM 40.1 °F 36.1 °F 32.0 °F 73% 30.15 in 10.0 mi SSE 5.8 mph - N/A   Clear
10:55 PM 40.3 °F 36.3 °F 32.0 °F 72% 30.15 in 10.0 mi SSE 5.8 mph - N/A   Clear
11:15 PM 40.1 °F 36.1 °F 32.0 °F 73% 30.14 in 10.0 mi South 5.8 mph - N/A   Clear
11:35 PM 40.5 °F 37.3 °F 32.0 °F 72% 30.13 in 10.0 mi South 4.6 mph - N/A   Clear
11:55 PM 41.0 °F 37.1 °F 31.6 °F 69% 30.13 in 10.0 mi South 5.8 mph - N/A   Clear